• en Belgique
  • Liste des pays
  • À 7 jours
  • Température de l'eau
  • Carte satellitaire
  • Carte météo
  • Widgets météo
  • user-avatar
    Se connecter

    Météo par heure à Kerkira

    Ce jour, 13 Décembre, Mercredi

    Heure Température Précipitation Vent Pression Humidité
    00:00 +12°C° 0,1 mm 5 m/s 766 mmHg 90%
    01:00 +12°C° 0 mm 4 m/s 766 mmHg 91%
    02:00 +12°C° 0,1 mm 5 m/s 766 mmHg 92%
    03:00 +12°C° 0,1 mm 5 m/s 766 mmHg 93%
    04:00 +12°C° 0,1 mm 5 m/s 766 mmHg 94%
    05:00 +12°C° 0 mm 5 m/s 766 mmHg 94%
    06:00 +12°C° 0 mm 5 m/s 766 mmHg 94%
    07:00 +12°C° 0 mm 4 m/s 766 mmHg 94%
    08:00 +13°C° 0 mm 5 m/s 766 mmHg 91%
    09:00 +14°C° 0 mm 5 m/s 766 mmHg 88%
    10:00 +15°C° 0 mm 5 m/s 766 mmHg 85%
    11:00 +15°C° 0,1 mm 5 m/s 766 mmHg 84%
    12:00 +16°C° 0,1 mm 5 m/s 766 mmHg 82%
    13:00 +16°C° 0,1 mm 5 m/s 765 mmHg 80%
    14:00 +15°C° 0,1 mm 5 m/s 765 mmHg 84%
    15:00 +15°C° 0,1 mm 5 m/s 765 mmHg 87%
    16:00 +14°C° 0,1 mm 5 m/s 764 mmHg 91%
    17:00 +14°C° 0,1 mm 5 m/s 764 mmHg 92%
    18:00 +13°C° 0,1 mm 5 m/s 764 mmHg 93%
    19:00 +13°C° 0,1 mm 5 m/s 764 mmHg 94%
    20:00 +13°C° 0,8 mm 5 m/s 764 mmHg 94%
    21:00 +13°C° 0,8 mm 5 m/s 764 mmHg 95%
    22:00 +13°C° 0,8 mm 4 m/s 764 mmHg 95%
    23:00 +13°C° 0,8 mm 4 m/s 764 mmHg 95%

    Demain, 14 Décembre, Jeudi

    Heure Température Précipitation Vent Pression Humidité
    00:00 +13°C° 0,8 mm 4 m/s 763 mmHg 95%
    01:00 +13°C° 0,8 mm 3 m/s 763 mmHg 95%
    02:00 +13°C° 0,2 mm 3 m/s 763 mmHg 94%
    03:00 +12°C° 0,2 mm 4 m/s 763 mmHg 93%
    04:00 +12°C° 0,2 mm 4 m/s 763 mmHg 93%
    05:00 +12°C° 0 mm 4 m/s 763 mmHg 93%
    06:00 +12°C° 0 mm 4 m/s 763 mmHg 93%
    07:00 +11°C° 0 mm 4 m/s 763 mmHg 93%
    08:00 +12°C° 0 mm 4 m/s 763 mmHg 88%
    09:00 +13°C° 0 mm 4 m/s 764 mmHg 82%
    10:00 +14°C° 0 mm 3 m/s 764 mmHg 77%
    11:00 +14°C° 0 mm 3 m/s 764 mmHg 72%
    12:00 +15°C° 0 mm 2 m/s 764 mmHg 67%
    13:00 +15°C° 0 mm 2 m/s 763 mmHg 62%
    14:00 +15°C° 0 mm 2 m/s 763 mmHg 65%
    15:00 +14°C° 0 mm 2 m/s 763 mmHg 69%
    16:00 +13°C° 0 mm 2 m/s 763 mmHg 73%
    17:00 +12°C° 0 mm 2 m/s 764 mmHg 75%
    18:00 +12°C° 0 mm 2 m/s 764 mmHg 77%
    19:00 +10°C° 0 mm 2 m/s 764 mmHg 79%
    20:00 +10°C° 0 mm 2 m/s 764 mmHg 80%
    21:00 +10°C° 0 mm 3 m/s 764 mmHg 81%
    22:00 +10°C° 0 mm 3 m/s 764 mmHg 82%
    23:00 +9°C° 0 mm 3 m/s 764 mmHg 81%

    Après-demain, 15 Décembre, Vendredi

    Heure Température Précipitation Vent Pression Humidité
    00:00 +8°C° 0 mm 4 m/s 764 mmHg 80%
    01:00 +8°C° 0 mm 4 m/s 764 mmHg 80%
    02:00 +8°C° 0 mm 4 m/s 763 mmHg 79%
    03:00 +8°C° 0 mm 4 m/s 763 mmHg 79%
    04:00 +8°C° 0 mm 4 m/s 763 mmHg 79%
    05:00 +8°C° 0 mm 4 m/s 763 mmHg 80%
    06:00 +8°C° 0 mm 5 m/s 762 mmHg 81%
    07:00 +8°C° 0 mm 5 m/s 762 mmHg 83%
    08:00 +9°C° 0 mm 5 m/s 762 mmHg 82%
    09:00 +11°C° 0 mm 6 m/s 762 mmHg 82%
    10:00 +13°C° 0 mm 6 m/s 762 mmHg 81%
    11:00 +12°C° 0 mm 7 m/s 762 mmHg 82%
    12:00 +14°C° 0 mm 7 m/s 761 mmHg 83%
    13:00 +14°C° 0 mm 7 m/s 761 mmHg 84%
    14:00 +12°C° 0,2 mm 7 m/s 760 mmHg 87%
    15:00 +12°C° 0,2 mm 7 m/s 760 mmHg 89%
    16:00 +11°C° 0,2 mm 6 m/s 760 mmHg 92%
    17:00 +11°C° 0,3 mm 6 m/s 760 mmHg 92%
    18:00 +11°C° 0,3 mm 6 m/s 760 mmHg 92%
    19:00 +11°C° 0,3 mm 7 m/s 760 mmHg 92%
    20:00 +11°C° 0,3 mm 7 m/s 760 mmHg 93%
    21:00 +11°C° 0,3 mm 7 m/s 760 mmHg 93%
    22:00 +11°C° 0,3 mm 7 m/s 760 mmHg 93%
    23:00 +11°C° 0,2 mm 7 m/s 760 mmHg 93%

    16 Décembre, Samedi

    Heure Température Précipitation Vent Pression Humidité
    00:00 +11°C° 0,2 mm 7 m/s 760 mmHg 94%
    01:00 +11°C° 0,2 mm 7 m/s 760 mmHg 94%
    02:00 +12°C° 0,2 mm 8 m/s 759 mmHg 95%
    03:00 +12°C° 0,2 mm 8 m/s 759 mmHg 96%
    04:00 +12°C° 0,2 mm 8 m/s 758 mmHg 96%
    05:00 +12°C° 0,1 mm 8 m/s 758 mmHg 96%
    06:00 +12°C° 0,1 mm 8 m/s 758 mmHg 96%
    07:00 +13°C° 0,1 mm 8 m/s 758 mmHg 96%
    08:00 +13°C° 0,1 mm 8 m/s 758 mmHg 94%
    09:00 +13°C° 0,1 mm 8 m/s 758 mmHg 93%
    10:00 +15°C° 0,1 mm 8 m/s 758 mmHg 91%
    11:00 +15°C° 0,2 mm 9 m/s 757 mmHg 90%
    12:00 +15°C° 0,2 mm 9 m/s 756 mmHg 89%
    13:00 +16°C° 0,2 mm 10 m/s 756 mmHg 88%
    14:00 +14°C° 2 mm 10 m/s 755 mmHg 90%
    15:00 +14°C° 2 mm 11 m/s 754 mmHg 93%
    16:00 +14°C° 2 mm 12 m/s 753 mmHg 95%
    17:00 +13°C° 5,1 mm 12 m/s 753 mmHg 95%
    18:00 +13°C° 5,1 mm 13 m/s 753 mmHg 96%
    19:00 +12°C° 5,1 mm 13 m/s 753 mmHg 96%
    20:00 +12°C° 5,4 mm 12 m/s 753 mmHg 96%
    21:00 +13°C° 5,4 mm 10 m/s 753 mmHg 96%
    22:00 +13°C° 5,4 mm 8 m/s 752 mmHg 97%
    23:00 +12°C° 2,7 mm 8 m/s 753 mmHg 96%

    17 Décembre, Dimanche

    Heure Température Précipitation Vent Pression Humidité
    00:00 +12°C° 2,7 mm 9 m/s 753 mmHg 96%
    01:00 +12°C° 2,7 mm 9 m/s 753 mmHg 96%
    02:00 +12°C° 0,3 mm 8 m/s 754 mmHg 94%
    03:00 +11°C° 0,3 mm 8 m/s 755 mmHg 93%
    04:00 +11°C° 0,3 mm 7 m/s 755 mmHg 91%
    05:00 +10°C° 0 mm 6 m/s 756 mmHg 90%
    06:00 +10°C° 0 mm 5 m/s 757 mmHg 88%
    07:00 +9°C° 0 mm 5 m/s 758 mmHg 87%
    08:00 +11°C° 0,1 mm 4 m/s 758 mmHg 82%
    09:00 +11°C° 0,1 mm 4 m/s 759 mmHg 77%
    10:00 +12°C° 0,1 mm 3 m/s 759 mmHg 72%
    11:00 +12°C° 0,3 mm 4 m/s 759 mmHg 73%
    12:00 +12°C° 0,3 mm 4 m/s 759 mmHg 75%
    13:00 +11°C° 0,3 mm 4 m/s 759 mmHg 76%
    14:00 +11°C° 0,3 mm 4 m/s 760 mmHg 78%
    15:00 +11°C° 0,3 mm 4 m/s 760 mmHg 80%
    16:00 +10°C° 0,3 mm 4 m/s 760 mmHg 82%
    17:00 +10°C° 0,1 mm 4 m/s 761 mmHg 82%
    18:00 +10°C° 0,1 mm 4 m/s 761 mmHg 83%
    19:00 +8°C° 0,1 mm 4 m/s 762 mmHg 84%
    20:00 +8°C° 0 mm 4 m/s 762 mmHg 84%
    21:00 +8°C° 0 mm 4 m/s 763 mmHg 84%
    22:00 +7°C° 0 mm 4 m/s 763 mmHg 85%
    23:00 +7°C° 0 mm 5 m/s 764 mmHg 85%

    18 Décembre, Lundi

    Heure Température Précipitation Vent Pression Humidité
    00:00 +7°C° 0 mm 5 m/s 764 mmHg 85%
    01:00 +6°C° 0 mm 5 m/s 764 mmHg 86%
    02:00 +6°C° 0 mm 5 m/s 764 mmHg 85%
    03:00 +6°C° 0 mm 5 m/s 764 mmHg 85%
    04:00 +6°C° 0 mm 5 m/s 765 mmHg 85%
    05:00 +6°C° 0 mm 5 m/s 765 mmHg 85%
    06:00 +5°C° 0 mm 5 m/s 765 mmHg 85%
    07:00 +5°C° 0 mm 5 m/s 766 mmHg 85%
    08:00 +6°C° 0 mm 5 m/s 766 mmHg 79%
    09:00 +7°C° 0 mm 5 m/s 766 mmHg 73%
    10:00 +8°C° 0 mm 5 m/s 767 mmHg 67%
    11:00 +8°C° 0 mm 6 m/s 766 mmHg 64%
    12:00 +8°C° 0 mm 6 m/s 766 mmHg 61%
    13:00 +9°C° 0 mm 7 m/s 766 mmHg 58%
    14:00 +8°C° 0 mm 7 m/s 766 mmHg 60%
    15:00 +6°C° 0 mm 7 m/s 766 mmHg 62%
    16:00 +5°C° 0 mm 7 m/s 766 mmHg 64%
    17:00 +4°C° 0 mm 7 m/s 767 mmHg 65%
    18:00 +3°C° 0 mm 6 m/s 767 mmHg 65%
    19:00 +3°C° 0 mm 6 m/s 767 mmHg 66%
    20:00 +2°C° 0 mm 6 m/s 768 mmHg 66%
    21:00 +2°C° 0 mm 5 m/s 768 mmHg 67%
    22:00 +2°C° 0 mm 5 m/s 768 mmHg 67%
    23:00 +2°C° 0 mm 5 m/s 768 mmHg 67%
    Voir plus